Index of /20260504/WXO-DD/model_rdps/10km/06/055
Name Last modified Size Description
Parent Directory -
20260504T06Z_MSC_RDPS_AbsoluteVorticity_IsbL-0250_RLatLon0.09_PT055H.grib2 2026-05-04 08:57 736K
20260504T06Z_MSC_RDPS_AbsoluteVorticity_IsbL-0500_RLatLon0.09_PT055H.grib2 2026-05-04 08:57 684K
20260504T06Z_MSC_RDPS_AbsoluteVorticity_IsbL-0700_RLatLon0.09_PT055H.grib2 2026-05-04 08:57 604K
20260504T06Z_MSC_RDPS_AbsoluteVorticity_IsbL-0850_RLatLon0.09_PT055H.grib2 2026-05-04 08:57 789K
20260504T06Z_MSC_RDPS_AirTemp_AGL-120m_RLatLon0.09_PT055H.grib2 2026-05-04 08:57 383K
20260504T06Z_MSC_RDPS_AirTemp_AGL-2m_RLatLon0.09_PT055H.grib2 2026-05-04 08:57 627K
20260504T06Z_MSC_RDPS_AirTemp_AGL-40m_RLatLon0.09_PT055H.grib2 2026-05-04 08:57 397K
20260504T06Z_MSC_RDPS_AirTemp_AGL-80m_RLatLon0.09_PT055H.grib2 2026-05-04 08:57 390K
20260504T06Z_MSC_RDPS_AirTemp_IsbL-0001_RLatLon0.09_PT055H.grib2 2026-05-04 08:57 239K
20260504T06Z_MSC_RDPS_AirTemp_IsbL-0005_RLatLon0.09_PT055H.grib2 2026-05-04 08:57 287K
20260504T06Z_MSC_RDPS_AirTemp_IsbL-0010_RLatLon0.09_PT055H.grib2 2026-05-04 08:57 390K
20260504T06Z_MSC_RDPS_AirTemp_IsbL-0020_RLatLon0.09_PT055H.grib2 2026-05-04 08:57 320K
20260504T06Z_MSC_RDPS_AirTemp_IsbL-0030_RLatLon0.09_PT055H.grib2 2026-05-04 08:57 338K
20260504T06Z_MSC_RDPS_AirTemp_IsbL-0050_RLatLon0.09_PT055H.grib2 2026-05-04 08:57 317K
20260504T06Z_MSC_RDPS_AirTemp_IsbL-0100_RLatLon0.09_PT055H.grib2 2026-05-04 08:57 423K
20260504T06Z_MSC_RDPS_AirTemp_IsbL-0150_RLatLon0.09_PT055H.grib2 2026-05-04 08:57 414K
20260504T06Z_MSC_RDPS_AirTemp_IsbL-0175_RLatLon0.09_PT055H.grib2 2026-05-04 08:57 406K
20260504T06Z_MSC_RDPS_AirTemp_IsbL-0200_RLatLon0.09_PT055H.grib2 2026-05-04 08:57 410K
20260504T06Z_MSC_RDPS_AirTemp_IsbL-0225_RLatLon0.09_PT055H.grib2 2026-05-04 08:57 411K
20260504T06Z_MSC_RDPS_AirTemp_IsbL-0250_RLatLon0.09_PT055H.grib2 2026-05-04 08:57 418K
20260504T06Z_MSC_RDPS_AirTemp_IsbL-0275_RLatLon0.09_PT055H.grib2 2026-05-04 08:57 399K
20260504T06Z_MSC_RDPS_AirTemp_IsbL-0300_RLatLon0.09_PT055H.grib2 2026-05-04 08:57 407K
20260504T06Z_MSC_RDPS_AirTemp_IsbL-0350_RLatLon0.09_PT055H.grib2 2026-05-04 08:57 425K
20260504T06Z_MSC_RDPS_AirTemp_IsbL-0400_RLatLon0.09_PT055H.grib2 2026-05-04 08:57 428K
20260504T06Z_MSC_RDPS_AirTemp_IsbL-0450_RLatLon0.09_PT055H.grib2 2026-05-04 08:57 433K
20260504T06Z_MSC_RDPS_AirTemp_IsbL-0500_RLatLon0.09_PT055H.grib2 2026-05-04 08:57 442K
20260504T06Z_MSC_RDPS_AirTemp_IsbL-0550_RLatLon0.09_PT055H.grib2 2026-05-04 08:57 457K
20260504T06Z_MSC_RDPS_AirTemp_IsbL-0600_RLatLon0.09_PT055H.grib2 2026-05-04 08:57 438K
20260504T06Z_MSC_RDPS_AirTemp_IsbL-0650_RLatLon0.09_PT055H.grib2 2026-05-04 08:57 453K
20260504T06Z_MSC_RDPS_AirTemp_IsbL-0700_RLatLon0.09_PT055H.grib2 2026-05-04 08:57 479K
20260504T06Z_MSC_RDPS_AirTemp_IsbL-0750_RLatLon0.09_PT055H.grib2 2026-05-04 08:57 519K
20260504T06Z_MSC_RDPS_AirTemp_IsbL-0800_RLatLon0.09_PT055H.grib2 2026-05-04 08:57 573K
20260504T06Z_MSC_RDPS_AirTemp_IsbL-0850_RLatLon0.09_PT055H.grib2 2026-05-04 08:57 638K
20260504T06Z_MSC_RDPS_AirTemp_IsbL-0875_RLatLon0.09_PT055H.grib2 2026-05-04 08:57 531K
20260504T06Z_MSC_RDPS_AirTemp_IsbL-0900_RLatLon0.09_PT055H.grib2 2026-05-04 08:57 538K
20260504T06Z_MSC_RDPS_AirTemp_IsbL-0925_RLatLon0.09_PT055H.grib2 2026-05-04 08:57 667K
20260504T06Z_MSC_RDPS_AirTemp_IsbL-0950_RLatLon0.09_PT055H.grib2 2026-05-04 08:57 529K
20260504T06Z_MSC_RDPS_AirTemp_IsbL-0970_RLatLon0.09_PT055H.grib2 2026-05-04 08:57 522K
20260504T06Z_MSC_RDPS_AirTemp_IsbL-0985_RLatLon0.09_PT055H.grib2 2026-05-04 08:57 511K
20260504T06Z_MSC_RDPS_AirTemp_IsbL-1000_RLatLon0.09_PT055H.grib2 2026-05-04 08:57 494K
20260504T06Z_MSC_RDPS_AirTemp_IsbL-1015_RLatLon0.09_PT055H.grib2 2026-05-04 08:57 500K
20260504T06Z_MSC_RDPS_Albedo_Sfc_RLatLon0.09_PT055H.grib2 2026-05-04 08:57 153K
20260504T06Z_MSC_RDPS_CAPE_Sfc_RLatLon0.09_PT055H.grib2 2026-05-04 08:57 1.7M
20260504T06Z_MSC_RDPS_CIN_Sfc_RLatLon0.09_PT055H.grib2 2026-05-04 08:57 1.1M
20260504T06Z_MSC_RDPS_CloudWater_EAtm_RLatLon0.09_PT055H.grib2 2026-05-04 08:57 221K
20260504T06Z_MSC_RDPS_ConvectivePrecip-Accum_Sfc_RLatLon0.09_PT055H.grib2 2026-05-04 08:57 1.1M
20260504T06Z_MSC_RDPS_DewPointDepression_AGL-2m_RLatLon0.09_PT055H.grib2 2026-05-04 08:57 412K
20260504T06Z_MSC_RDPS_DewPointDepression_IsbL-0001_RLatLon0.09_PT055H.grib2 2026-05-04 08:57 193
20260504T06Z_MSC_RDPS_DewPointDepression_IsbL-0005_RLatLon0.09_PT055H.grib2 2026-05-04 08:57 193
20260504T06Z_MSC_RDPS_DewPointDepression_IsbL-0010_RLatLon0.09_PT055H.grib2 2026-05-04 08:57 193
20260504T06Z_MSC_RDPS_DewPointDepression_IsbL-0020_RLatLon0.09_PT055H.grib2 2026-05-04 08:57 193
20260504T06Z_MSC_RDPS_DewPointDepression_IsbL-0030_RLatLon0.09_PT055H.grib2 2026-05-04 08:57 193
20260504T06Z_MSC_RDPS_DewPointDepression_IsbL-0050_RLatLon0.09_PT055H.grib2 2026-05-04 08:57 79K
20260504T06Z_MSC_RDPS_DewPointDepression_IsbL-0100_RLatLon0.09_PT055H.grib2 2026-05-04 08:57 111K
20260504T06Z_MSC_RDPS_DewPointDepression_IsbL-0150_RLatLon0.09_PT055H.grib2 2026-05-04 08:57 137K
20260504T06Z_MSC_RDPS_DewPointDepression_IsbL-0175_RLatLon0.09_PT055H.grib2 2026-05-04 08:57 183K
20260504T06Z_MSC_RDPS_DewPointDepression_IsbL-0200_RLatLon0.09_PT055H.grib2 2026-05-04 08:57 221K
20260504T06Z_MSC_RDPS_DewPointDepression_IsbL-0225_RLatLon0.09_PT055H.grib2 2026-05-04 08:57 255K
20260504T06Z_MSC_RDPS_DewPointDepression_IsbL-0250_RLatLon0.09_PT055H.grib2 2026-05-04 08:57 299K
20260504T06Z_MSC_RDPS_DewPointDepression_IsbL-0275_RLatLon0.09_PT055H.grib2 2026-05-04 08:57 309K
20260504T06Z_MSC_RDPS_DewPointDepression_IsbL-0300_RLatLon0.09_PT055H.grib2 2026-05-04 08:57 328K
20260504T06Z_MSC_RDPS_DewPointDepression_IsbL-0350_RLatLon0.09_PT055H.grib2 2026-05-04 08:57 333K
20260504T06Z_MSC_RDPS_DewPointDepression_IsbL-0400_RLatLon0.09_PT055H.grib2 2026-05-04 08:57 339K
20260504T06Z_MSC_RDPS_DewPointDepression_IsbL-0450_RLatLon0.09_PT055H.grib2 2026-05-04 08:57 341K
20260504T06Z_MSC_RDPS_DewPointDepression_IsbL-0500_RLatLon0.09_PT055H.grib2 2026-05-04 08:57 343K
20260504T06Z_MSC_RDPS_DewPointDepression_IsbL-0550_RLatLon0.09_PT055H.grib2 2026-05-04 08:57 351K
20260504T06Z_MSC_RDPS_DewPointDepression_IsbL-0600_RLatLon0.09_PT055H.grib2 2026-05-04 08:57 360K
20260504T06Z_MSC_RDPS_DewPointDepression_IsbL-0650_RLatLon0.09_PT055H.grib2 2026-05-04 08:57 365K
20260504T06Z_MSC_RDPS_DewPointDepression_IsbL-0700_RLatLon0.09_PT055H.grib2 2026-05-04 08:57 376K
20260504T06Z_MSC_RDPS_DewPointDepression_IsbL-0750_RLatLon0.09_PT055H.grib2 2026-05-04 08:57 398K
20260504T06Z_MSC_RDPS_DewPointDepression_IsbL-0800_RLatLon0.09_PT055H.grib2 2026-05-04 08:57 435K
20260504T06Z_MSC_RDPS_DewPointDepression_IsbL-0850_RLatLon0.09_PT055H.grib2 2026-05-04 08:57 481K
20260504T06Z_MSC_RDPS_DewPointDepression_IsbL-0875_RLatLon0.09_PT055H.grib2 2026-05-04 08:57 479K
20260504T06Z_MSC_RDPS_DewPointDepression_IsbL-0900_RLatLon0.09_PT055H.grib2 2026-05-04 08:57 465K
20260504T06Z_MSC_RDPS_DewPointDepression_IsbL-0925_RLatLon0.09_PT055H.grib2 2026-05-04 08:57 449K
20260504T06Z_MSC_RDPS_DewPointDepression_IsbL-0950_RLatLon0.09_PT055H.grib2 2026-05-04 08:57 440K
20260504T06Z_MSC_RDPS_DewPointDepression_IsbL-0970_RLatLon0.09_PT055H.grib2 2026-05-04 08:57 436K
20260504T06Z_MSC_RDPS_DewPointDepression_IsbL-0985_RLatLon0.09_PT055H.grib2 2026-05-04 08:57 437K
20260504T06Z_MSC_RDPS_DewPointDepression_IsbL-1000_RLatLon0.09_PT055H.grib2 2026-05-04 08:57 435K
20260504T06Z_MSC_RDPS_DewPointDepression_IsbL-1015_RLatLon0.09_PT055H.grib2 2026-05-04 08:57 426K
20260504T06Z_MSC_RDPS_DewPoint_AGL-2m_RLatLon0.09_PT055H.grib2 2026-05-04 08:57 399K
20260504T06Z_MSC_RDPS_DownwardLongwaveRadiationFlux-Accum_Sfc_RLatLon0.09_PT055H.grib2 2026-05-04 08:57 401K
20260504T06Z_MSC_RDPS_DownwardShortwaveRadiationFlux-Accum_NTAtm_RLatLon0.09_PT055H.grib2 2026-05-04 08:57 142K
20260504T06Z_MSC_RDPS_DownwardShortwaveRadiationFlux-Accum_Sfc_RLatLon0.09_PT055H.grib2 2026-05-04 08:57 580K
20260504T06Z_MSC_RDPS_FreezingRain-Accum1h_Sfc_RLatLon0.09_PT055H.grib2 2026-05-04 08:57 33K
20260504T06Z_MSC_RDPS_FreezingRain-Accum_Sfc_RLatLon0.09_PT055H.grib2 2026-05-04 08:57 175K
20260504T06Z_MSC_RDPS_GeopotentialHeight_IsbL-0001_RLatLon0.09_PT055H.grib2 2026-05-04 08:57 319K
20260504T06Z_MSC_RDPS_GeopotentialHeight_IsbL-0005_RLatLon0.09_PT055H.grib2 2026-05-04 08:57 308K
20260504T06Z_MSC_RDPS_GeopotentialHeight_IsbL-0010_RLatLon0.09_PT055H.grib2 2026-05-04 08:57 308K
20260504T06Z_MSC_RDPS_GeopotentialHeight_IsbL-0020_RLatLon0.09_PT055H.grib2 2026-05-04 08:57 309K
20260504T06Z_MSC_RDPS_GeopotentialHeight_IsbL-0030_RLatLon0.09_PT055H.grib2 2026-05-04 08:57 409K
20260504T06Z_MSC_RDPS_GeopotentialHeight_IsbL-0050_RLatLon0.09_PT055H.grib2 2026-05-04 08:57 312K
20260504T06Z_MSC_RDPS_GeopotentialHeight_IsbL-0100_RLatLon0.09_PT055H.grib2 2026-05-04 08:57 286K
20260504T06Z_MSC_RDPS_GeopotentialHeight_IsbL-0150_RLatLon0.09_PT055H.grib2 2026-05-04 08:57 229K
20260504T06Z_MSC_RDPS_GeopotentialHeight_IsbL-0175_RLatLon0.09_PT055H.grib2 2026-05-04 08:57 232K
20260504T06Z_MSC_RDPS_GeopotentialHeight_IsbL-0200_RLatLon0.09_PT055H.grib2 2026-05-04 08:57 235K
20260504T06Z_MSC_RDPS_GeopotentialHeight_IsbL-0225_RLatLon0.09_PT055H.grib2 2026-05-04 08:57 237K
20260504T06Z_MSC_RDPS_GeopotentialHeight_IsbL-0250_RLatLon0.09_PT055H.grib2 2026-05-04 08:57 238K
20260504T06Z_MSC_RDPS_GeopotentialHeight_IsbL-0275_RLatLon0.09_PT055H.grib2 2026-05-04 08:57 237K
20260504T06Z_MSC_RDPS_GeopotentialHeight_IsbL-0300_RLatLon0.09_PT055H.grib2 2026-05-04 08:57 236K
20260504T06Z_MSC_RDPS_GeopotentialHeight_IsbL-0350_RLatLon0.09_PT055H.grib2 2026-05-04 08:57 233K
20260504T06Z_MSC_RDPS_GeopotentialHeight_IsbL-0400_RLatLon0.09_PT055H.grib2 2026-05-04 08:57 229K
20260504T06Z_MSC_RDPS_GeopotentialHeight_IsbL-0450_RLatLon0.09_PT055H.grib2 2026-05-04 08:57 298K
20260504T06Z_MSC_RDPS_GeopotentialHeight_IsbL-0500_RLatLon0.09_PT055H.grib2 2026-05-04 08:57 293K
20260504T06Z_MSC_RDPS_GeopotentialHeight_IsbL-0550_RLatLon0.09_PT055H.grib2 2026-05-04 08:57 289K
20260504T06Z_MSC_RDPS_GeopotentialHeight_IsbL-0600_RLatLon0.09_PT055H.grib2 2026-05-04 08:57 286K
20260504T06Z_MSC_RDPS_GeopotentialHeight_IsbL-0650_RLatLon0.09_PT055H.grib2 2026-05-04 08:57 256K
20260504T06Z_MSC_RDPS_GeopotentialHeight_IsbL-0700_RLatLon0.09_PT055H.grib2 2026-05-04 08:57 338K
20260504T06Z_MSC_RDPS_GeopotentialHeight_IsbL-0750_RLatLon0.09_PT055H.grib2 2026-05-04 08:57 340K
20260504T06Z_MSC_RDPS_GeopotentialHeight_IsbL-0800_RLatLon0.09_PT055H.grib2 2026-05-04 08:57 348K
20260504T06Z_MSC_RDPS_GeopotentialHeight_IsbL-0850_RLatLon0.09_PT055H.grib2 2026-05-04 08:57 360K
20260504T06Z_MSC_RDPS_GeopotentialHeight_IsbL-0875_RLatLon0.09_PT055H.grib2 2026-05-04 08:57 363K
20260504T06Z_MSC_RDPS_GeopotentialHeight_IsbL-0900_RLatLon0.09_PT055H.grib2 2026-05-04 08:57 366K
20260504T06Z_MSC_RDPS_GeopotentialHeight_IsbL-0925_RLatLon0.09_PT055H.grib2 2026-05-04 08:57 370K
20260504T06Z_MSC_RDPS_GeopotentialHeight_IsbL-0950_RLatLon0.09_PT055H.grib2 2026-05-04 08:57 370K
20260504T06Z_MSC_RDPS_GeopotentialHeight_IsbL-0970_RLatLon0.09_PT055H.grib2 2026-05-04 08:57 374K
20260504T06Z_MSC_RDPS_GeopotentialHeight_IsbL-0985_RLatLon0.09_PT055H.grib2 2026-05-04 08:57 383K
20260504T06Z_MSC_RDPS_GeopotentialHeight_IsbL-1000_RLatLon0.09_PT055H.grib2 2026-05-04 08:57 395K
20260504T06Z_MSC_RDPS_GeopotentialHeight_IsbL-1015_RLatLon0.09_PT055H.grib2 2026-05-04 08:57 411K
20260504T06Z_MSC_RDPS_Humidex_Sfc_RLatLon0.09_PT055H.grib2 2026-05-04 08:57 2.4M
20260504T06Z_MSC_RDPS_IcePellets-Accum1h_Sfc_RLatLon0.09_PT055H.grib2 2026-05-04 08:57 8.1K
20260504T06Z_MSC_RDPS_IcePellets-Accum_Sfc_RLatLon0.09_PT055H.grib2 2026-05-04 08:57 37K
20260504T06Z_MSC_RDPS_KIndex_Sfc_RLatLon0.09_PT055H.grib2 2026-05-04 08:57 2.5M
20260504T06Z_MSC_RDPS_LatentHeatNetFlux_Sfc_RLatLon0.09_PT055H.grib2 2026-05-04 08:57 352K
20260504T06Z_MSC_RDPS_LiftedIndex-MU-VT_IsbL-0500_RLatLon0.09_PT055H.grib2 2026-05-04 08:57 2.4M
20260504T06Z_MSC_RDPS_NetLongwaveRadiationFlux-Accum_Sfc_RLatLon0.09_PT055H.grib2 2026-05-04 08:57 570K
20260504T06Z_MSC_RDPS_NetShortwaveRadiationFlux-Accum_Sfc_RLatLon0.09_PT055H.grib2 2026-05-04 08:57 577K
20260504T06Z_MSC_RDPS_PlanetaryBoundaryLayerHeight_Sfc_RLatLon0.09_PT055H.grib2 2026-05-04 08:57 1.1M
20260504T06Z_MSC_RDPS_Precip-Accum1h_Sfc_RLatLon0.09_PT055H.grib2 2026-05-04 08:57 1.4M
20260504T06Z_MSC_RDPS_Precip-Accum_Sfc_RLatLon0.09_PT055H.grib2 2026-05-04 08:57 2.1M
20260504T06Z_MSC_RDPS_PrecipRate_Sfc_RLatLon0.09_PT055H.grib2 2026-05-04 08:57 199K
20260504T06Z_MSC_RDPS_PrecipType-Instant_Sfc_RLatLon0.09_PT055H.grib2 2026-05-04 08:57 646K
20260504T06Z_MSC_RDPS_Pressure-Trend3h_Sfc_RLatLon0.09_PT055H.grib2 2026-05-04 08:57 1.2M
20260504T06Z_MSC_RDPS_Pressure_MSL_RLatLon0.09_PT055H.grib2 2026-05-04 08:57 293K
20260504T06Z_MSC_RDPS_Pressure_PVU-1.5_RLatLon0.09_PT055H.grib2 2026-05-04 08:57 2.3M
20260504T06Z_MSC_RDPS_Pressure_PVU-1_RLatLon0.09_PT055H.grib2 2026-05-04 08:57 2.4M
20260504T06Z_MSC_RDPS_Pressure_PVU-2_RLatLon0.09_PT055H.grib2 2026-05-04 08:57 2.4M
20260504T06Z_MSC_RDPS_Pressure_Sfc_RLatLon0.09_PT055H.grib2 2026-05-04 08:57 499K
20260504T06Z_MSC_RDPS_RadiativeTemp_Sfc_RLatLon0.09_PT055H.grib2 2026-05-04 08:57 303K
20260504T06Z_MSC_RDPS_Rain-Accum1h_Sfc_RLatLon0.09_PT055H.grib2 2026-05-04 08:57 775K
20260504T06Z_MSC_RDPS_Rain-Accum_Sfc_RLatLon0.09_PT055H.grib2 2026-05-04 08:57 1.7M
20260504T06Z_MSC_RDPS_RelativeHumidity_AGL-2m_RLatLon0.09_PT055H.grib2 2026-05-04 08:57 1.0M
20260504T06Z_MSC_RDPS_RelativeHumidity_IsbL-0010_RLatLon0.09_PT055H.grib2 2026-05-04 08:57 688K
20260504T06Z_MSC_RDPS_RelativeHumidity_IsbL-0020_RLatLon0.09_PT055H.grib2 2026-05-04 08:57 654K
20260504T06Z_MSC_RDPS_RelativeHumidity_IsbL-0030_RLatLon0.09_PT055H.grib2 2026-05-04 08:57 641K
20260504T06Z_MSC_RDPS_RelativeHumidity_IsbL-0050_RLatLon0.09_PT055H.grib2 2026-05-04 08:57 362K
20260504T06Z_MSC_RDPS_RelativeHumidity_IsbL-0100_RLatLon0.09_PT055H.grib2 2026-05-04 08:57 270K
20260504T06Z_MSC_RDPS_RelativeHumidity_IsbL-0150_RLatLon0.09_PT055H.grib2 2026-05-04 08:57 409K
20260504T06Z_MSC_RDPS_RelativeHumidity_IsbL-0175_RLatLon0.09_PT055H.grib2 2026-05-04 08:57 474K
20260504T06Z_MSC_RDPS_RelativeHumidity_IsbL-0200_RLatLon0.09_PT055H.grib2 2026-05-04 08:57 546K
20260504T06Z_MSC_RDPS_RelativeHumidity_IsbL-0225_RLatLon0.09_PT055H.grib2 2026-05-04 08:57 612K
20260504T06Z_MSC_RDPS_RelativeHumidity_IsbL-0250_RLatLon0.09_PT055H.grib2 2026-05-04 08:57 682K
20260504T06Z_MSC_RDPS_RelativeHumidity_IsbL-0275_RLatLon0.09_PT055H.grib2 2026-05-04 08:57 710K
20260504T06Z_MSC_RDPS_RelativeHumidity_IsbL-0300_RLatLon0.09_PT055H.grib2 2026-05-04 08:57 757K
20260504T06Z_MSC_RDPS_RelativeHumidity_IsbL-0350_RLatLon0.09_PT055H.grib2 2026-05-04 08:57 779K
20260504T06Z_MSC_RDPS_RelativeHumidity_IsbL-0400_RLatLon0.09_PT055H.grib2 2026-05-04 08:57 789K
20260504T06Z_MSC_RDPS_RelativeHumidity_IsbL-0450_RLatLon0.09_PT055H.grib2 2026-05-04 08:57 791K
20260504T06Z_MSC_RDPS_RelativeHumidity_IsbL-0500_RLatLon0.09_PT055H.grib2 2026-05-04 08:57 790K
20260504T06Z_MSC_RDPS_RelativeHumidity_IsbL-0550_RLatLon0.09_PT055H.grib2 2026-05-04 08:57 802K
20260504T06Z_MSC_RDPS_RelativeHumidity_IsbL-0600_RLatLon0.09_PT055H.grib2 2026-05-04 08:57 819K
20260504T06Z_MSC_RDPS_RelativeHumidity_IsbL-0650_RLatLon0.09_PT055H.grib2 2026-05-04 08:57 833K
20260504T06Z_MSC_RDPS_RelativeHumidity_IsbL-0700_RLatLon0.09_PT055H.grib2 2026-05-04 08:57 856K
20260504T06Z_MSC_RDPS_RelativeHumidity_IsbL-0750_RLatLon0.09_PT055H.grib2 2026-05-04 08:57 900K
20260504T06Z_MSC_RDPS_RelativeHumidity_IsbL-0800_RLatLon0.09_PT055H.grib2 2026-05-04 08:57 971K
20260504T06Z_MSC_RDPS_RelativeHumidity_IsbL-0850_RLatLon0.09_PT055H.grib2 2026-05-04 08:57 1.0M
20260504T06Z_MSC_RDPS_RelativeHumidity_IsbL-0875_RLatLon0.09_PT055H.grib2 2026-05-04 08:57 1.1M
20260504T06Z_MSC_RDPS_RelativeHumidity_IsbL-0900_RLatLon0.09_PT055H.grib2 2026-05-04 08:57 1.1M
20260504T06Z_MSC_RDPS_RelativeHumidity_IsbL-0925_RLatLon0.09_PT055H.grib2 2026-05-04 08:57 1.1M
20260504T06Z_MSC_RDPS_RelativeHumidity_IsbL-0950_RLatLon0.09_PT055H.grib2 2026-05-04 08:57 1.1M
20260504T06Z_MSC_RDPS_RelativeHumidity_IsbL-0970_RLatLon0.09_PT055H.grib2 2026-05-04 08:57 1.1M
20260504T06Z_MSC_RDPS_RelativeHumidity_IsbL-0985_RLatLon0.09_PT055H.grib2 2026-05-04 08:57 1.1M
20260504T06Z_MSC_RDPS_RelativeHumidity_IsbL-1000_RLatLon0.09_PT055H.grib2 2026-05-04 08:57 1.0M
20260504T06Z_MSC_RDPS_RelativeHumidity_IsbL-1015_RLatLon0.09_PT055H.grib2 2026-05-04 08:57 1.0M
20260504T06Z_MSC_RDPS_Runoff-Accum_Sfc_RLatLon0.09_PT055H.grib2 2026-05-04 08:57 57K
20260504T06Z_MSC_RDPS_SWEATIndex_Sfc_RLatLon0.09_PT055H.grib2 2026-05-04 08:57 2.4M
20260504T06Z_MSC_RDPS_SeeingIndex_EAtm_RLatLon0.09_PT055H.grib2 2026-05-04 08:57 1.0M
20260504T06Z_MSC_RDPS_SensibleHeatNetFlux_Sfc_RLatLon0.09_PT055H.grib2 2026-05-04 08:57 323K
20260504T06Z_MSC_RDPS_ShowalterIndex_IsbL-0500_RLatLon0.09_PT055H.grib2 2026-05-04 08:57 2.6M
20260504T06Z_MSC_RDPS_SkyTransparencyIndex_EAtm_RLatLon0.09_PT055H.grib2 2026-05-04 08:57 702K
20260504T06Z_MSC_RDPS_Snow-Accum1h_Sfc_RLatLon0.09_PT055H.grib2 2026-05-04 08:57 549K
20260504T06Z_MSC_RDPS_Snow-Accum_Sfc_RLatLon0.09_PT055H.grib2 2026-05-04 08:57 763K
20260504T06Z_MSC_RDPS_SnowDensity_Sfc_RLatLon0.09_PT055H.grib2 2026-05-04 08:57 176K
20260504T06Z_MSC_RDPS_SnowDepth_Sfc_RLatLon0.09_PT055H.grib2 2026-05-04 08:57 654K
20260504T06Z_MSC_RDPS_SoilTemp_DBS-0to10cm_RLatLon0.09_PT055H.grib2 2026-05-04 08:57 238K
20260504T06Z_MSC_RDPS_SoilTemp_Sfc_RLatLon0.09_PT055H.grib2 2026-05-04 08:57 276K
20260504T06Z_MSC_RDPS_SoilVolumetricIceContent_Sfc_RLatLon0.09_PT055H.grib2 2026-05-04 08:57 153K
20260504T06Z_MSC_RDPS_SoilVolumetricWaterContent_DBS-0to10cm_RLatLon0.09_PT055H.grib2 2026-05-04 08:57 280K
20260504T06Z_MSC_RDPS_SoilVolumetricWaterContent_DBS-0to1cm_RLatLon0.09_PT055H.grib2 2026-05-04 08:57 343K
20260504T06Z_MSC_RDPS_SpecificHumidity_AGL-120m_RLatLon0.09_PT055H.grib2 2026-05-04 08:57 499K
20260504T06Z_MSC_RDPS_SpecificHumidity_AGL-2m_RLatLon0.09_PT055H.grib2 2026-05-04 08:57 667K
20260504T06Z_MSC_RDPS_SpecificHumidity_AGL-40m_RLatLon0.09_PT055H.grib2 2026-05-04 08:57 505K
20260504T06Z_MSC_RDPS_SpecificHumidity_AGL-80m_RLatLon0.09_PT055H.grib2 2026-05-04 08:57 501K
20260504T06Z_MSC_RDPS_SpecificHumidity_IsbL-0001_RLatLon0.09_PT055H.grib2 2026-05-04 08:57 375K
20260504T06Z_MSC_RDPS_SpecificHumidity_IsbL-0005_RLatLon0.09_PT055H.grib2 2026-05-04 08:57 371K
20260504T06Z_MSC_RDPS_SpecificHumidity_IsbL-0010_RLatLon0.09_PT055H.grib2 2026-05-04 08:57 403K
20260504T06Z_MSC_RDPS_SpecificHumidity_IsbL-0020_RLatLon0.09_PT055H.grib2 2026-05-04 08:57 382K
20260504T06Z_MSC_RDPS_SpecificHumidity_IsbL-0030_RLatLon0.09_PT055H.grib2 2026-05-04 08:57 370K
20260504T06Z_MSC_RDPS_SpecificHumidity_IsbL-0050_RLatLon0.09_PT055H.grib2 2026-05-04 08:57 480K
20260504T06Z_MSC_RDPS_SpecificHumidity_IsbL-0100_RLatLon0.09_PT055H.grib2 2026-05-04 08:57 416K
20260504T06Z_MSC_RDPS_SpecificHumidity_IsbL-0150_RLatLon0.09_PT055H.grib2 2026-05-04 08:57 453K
20260504T06Z_MSC_RDPS_SpecificHumidity_IsbL-0175_RLatLon0.09_PT055H.grib2 2026-05-04 08:57 441K
20260504T06Z_MSC_RDPS_SpecificHumidity_IsbL-0200_RLatLon0.09_PT055H.grib2 2026-05-04 08:57 449K
20260504T06Z_MSC_RDPS_SpecificHumidity_IsbL-0225_RLatLon0.09_PT055H.grib2 2026-05-04 08:57 448K
20260504T06Z_MSC_RDPS_SpecificHumidity_IsbL-0250_RLatLon0.09_PT055H.grib2 2026-05-04 08:57 556K
20260504T06Z_MSC_RDPS_SpecificHumidity_IsbL-0275_RLatLon0.09_PT055H.grib2 2026-05-04 08:57 474K
20260504T06Z_MSC_RDPS_SpecificHumidity_IsbL-0300_RLatLon0.09_PT055H.grib2 2026-05-04 08:57 551K
20260504T06Z_MSC_RDPS_SpecificHumidity_IsbL-0350_RLatLon0.09_PT055H.grib2 2026-05-04 08:57 545K
20260504T06Z_MSC_RDPS_SpecificHumidity_IsbL-0400_RLatLon0.09_PT055H.grib2 2026-05-04 08:57 522K
20260504T06Z_MSC_RDPS_SpecificHumidity_IsbL-0450_RLatLon0.09_PT055H.grib2 2026-05-04 08:57 568K
20260504T06Z_MSC_RDPS_SpecificHumidity_IsbL-0500_RLatLon0.09_PT055H.grib2 2026-05-04 08:57 498K
20260504T06Z_MSC_RDPS_SpecificHumidity_IsbL-0550_RLatLon0.09_PT055H.grib2 2026-05-04 08:57 567K
20260504T06Z_MSC_RDPS_SpecificHumidity_IsbL-0600_RLatLon0.09_PT055H.grib2 2026-05-04 08:57 618K
20260504T06Z_MSC_RDPS_SpecificHumidity_IsbL-0650_RLatLon0.09_PT055H.grib2 2026-05-04 08:57 534K
20260504T06Z_MSC_RDPS_SpecificHumidity_IsbL-0700_RLatLon0.09_PT055H.grib2 2026-05-04 08:57 574K
20260504T06Z_MSC_RDPS_SpecificHumidity_IsbL-0750_RLatLon0.09_PT055H.grib2 2026-05-04 08:57 629K
20260504T06Z_MSC_RDPS_SpecificHumidity_IsbL-0800_RLatLon0.09_PT055H.grib2 2026-05-04 08:57 716K
20260504T06Z_MSC_RDPS_SpecificHumidity_IsbL-0850_RLatLon0.09_PT055H.grib2 2026-05-04 08:57 807K
20260504T06Z_MSC_RDPS_SpecificHumidity_IsbL-0875_RLatLon0.09_PT055H.grib2 2026-05-04 08:57 833K
20260504T06Z_MSC_RDPS_SpecificHumidity_IsbL-0900_RLatLon0.09_PT055H.grib2 2026-05-04 08:57 842K
20260504T06Z_MSC_RDPS_SpecificHumidity_IsbL-0925_RLatLon0.09_PT055H.grib2 2026-05-04 08:57 843K
20260504T06Z_MSC_RDPS_SpecificHumidity_IsbL-0950_RLatLon0.09_PT055H.grib2 2026-05-04 08:57 843K
20260504T06Z_MSC_RDPS_SpecificHumidity_IsbL-0970_RLatLon0.09_PT055H.grib2 2026-05-04 08:57 698K
20260504T06Z_MSC_RDPS_SpecificHumidity_IsbL-0985_RLatLon0.09_PT055H.grib2 2026-05-04 08:57 694K
20260504T06Z_MSC_RDPS_SpecificHumidity_IsbL-1000_RLatLon0.09_PT055H.grib2 2026-05-04 08:57 692K
20260504T06Z_MSC_RDPS_SpecificHumidity_IsbL-1015_RLatLon0.09_PT055H.grib2 2026-05-04 08:57 682K
20260504T06Z_MSC_RDPS_SpecificHumidity_Sfc_RLatLon0.09_PT055H.grib2 2026-05-04 08:57 303K
20260504T06Z_MSC_RDPS_StormRelativeHelicity_EtaL-10000_RLatLon0.09_PT055H.grib2 2026-05-04 08:57 1.1M
20260504T06Z_MSC_RDPS_StormSeverityIndex_EtaL-10000_RLatLon0.09_PT055H.grib2 2026-05-04 08:57 1.2M
20260504T06Z_MSC_RDPS_Thickness_IsbL-0850to0700_RLatLon0.09_PT055H.grib2 2026-05-04 08:57 176K
20260504T06Z_MSC_RDPS_Thickness_IsbL-1000to0500_RLatLon0.09_PT055H.grib2 2026-05-04 08:57 195K
20260504T06Z_MSC_RDPS_Thickness_IsbL-1000to0850_RLatLon0.09_PT055H.grib2 2026-05-04 08:57 260K
20260504T06Z_MSC_RDPS_TotalCloudCover_Sfc_RLatLon0.09_PT055H.grib2 2026-05-04 08:57 665K
20260504T06Z_MSC_RDPS_TotalTotalsIndex_Sfc_RLatLon0.09_PT055H.grib2 2026-05-04 08:57 2.5M
20260504T06Z_MSC_RDPS_UVIndex-ClearSky_Sfc_RLatLon0.09_PT055H.grib2 2026-05-04 08:57 196K
20260504T06Z_MSC_RDPS_UVIndex_Sfc_RLatLon0.09_PT055H.grib2 2026-05-04 08:57 436K
20260504T06Z_MSC_RDPS_UpwardLongwaveRadiationFlux_NTAtm_RLatLon0.09_PT055H.grib2 2026-05-04 08:57 482K
20260504T06Z_MSC_RDPS_UpwardShortwaveRadiationFlux_NTAtm_RLatLon0.09_PT055H.grib2 2026-05-04 08:57 369K
20260504T06Z_MSC_RDPS_VerticalVelocity_IsbL-0250_RLatLon0.09_PT055H.grib2 2026-05-04 08:57 554K
20260504T06Z_MSC_RDPS_VerticalVelocity_IsbL-0500_RLatLon0.09_PT055H.grib2 2026-05-04 08:57 553K
20260504T06Z_MSC_RDPS_VerticalVelocity_IsbL-0700_RLatLon0.09_PT055H.grib2 2026-05-04 08:57 732K
20260504T06Z_MSC_RDPS_VerticalVelocity_IsbL-0850_RLatLon0.09_PT055H.grib2 2026-05-04 08:57 697K
20260504T06Z_MSC_RDPS_VerticalWindShear_EtaL-6500_RLatLon0.09_PT055H.grib2 2026-05-04 08:57 1.2M
20260504T06Z_MSC_RDPS_WindChill_Sfc_RLatLon0.09_PT055H.grib2 2026-05-04 08:57 1.2M
20260504T06Z_MSC_RDPS_WindDir_AGL-10m_RLatLon0.09_PT055H.grib2 2026-05-04 08:57 1.0M
20260504T06Z_MSC_RDPS_WindDir_AGL-120m_RLatLon0.09_PT055H.grib2 2026-05-04 08:57 612K
20260504T06Z_MSC_RDPS_WindDir_AGL-40m_RLatLon0.09_PT055H.grib2 2026-05-04 08:57 641K
20260504T06Z_MSC_RDPS_WindDir_AGL-80m_RLatLon0.09_PT055H.grib2 2026-05-04 08:57 624K
20260504T06Z_MSC_RDPS_WindDir_IsbL-0001_RLatLon0.09_PT055H.grib2 2026-05-04 08:57 308K
20260504T06Z_MSC_RDPS_WindDir_IsbL-0005_RLatLon0.09_PT055H.grib2 2026-05-04 08:57 385K
20260504T06Z_MSC_RDPS_WindDir_IsbL-0010_RLatLon0.09_PT055H.grib2 2026-05-04 08:57 397K
20260504T06Z_MSC_RDPS_WindDir_IsbL-0020_RLatLon0.09_PT055H.grib2 2026-05-04 08:57 415K
20260504T06Z_MSC_RDPS_WindDir_IsbL-0030_RLatLon0.09_PT055H.grib2 2026-05-04 08:57 411K
20260504T06Z_MSC_RDPS_WindDir_IsbL-0050_RLatLon0.09_PT055H.grib2 2026-05-04 08:57 440K
20260504T06Z_MSC_RDPS_WindDir_IsbL-0100_RLatLon0.09_PT055H.grib2 2026-05-04 08:57 417K
20260504T06Z_MSC_RDPS_WindDir_IsbL-0150_RLatLon0.09_PT055H.grib2 2026-05-04 08:57 417K
20260504T06Z_MSC_RDPS_WindDir_IsbL-0175_RLatLon0.09_PT055H.grib2 2026-05-04 08:57 440K
20260504T06Z_MSC_RDPS_WindDir_IsbL-0200_RLatLon0.09_PT055H.grib2 2026-05-04 08:57 454K
20260504T06Z_MSC_RDPS_WindDir_IsbL-0225_RLatLon0.09_PT055H.grib2 2026-05-04 08:57 460K
20260504T06Z_MSC_RDPS_WindDir_IsbL-0250_RLatLon0.09_PT055H.grib2 2026-05-04 08:57 452K
20260504T06Z_MSC_RDPS_WindDir_IsbL-0275_RLatLon0.09_PT055H.grib2 2026-05-04 08:57 471K
20260504T06Z_MSC_RDPS_WindDir_IsbL-0300_RLatLon0.09_PT055H.grib2 2026-05-04 08:57 474K
20260504T06Z_MSC_RDPS_WindDir_IsbL-0350_RLatLon0.09_PT055H.grib2 2026-05-04 08:57 502K
20260504T06Z_MSC_RDPS_WindDir_IsbL-0400_RLatLon0.09_PT055H.grib2 2026-05-04 08:57 524K
20260504T06Z_MSC_RDPS_WindDir_IsbL-0450_RLatLon0.09_PT055H.grib2 2026-05-04 08:57 538K
20260504T06Z_MSC_RDPS_WindDir_IsbL-0500_RLatLon0.09_PT055H.grib2 2026-05-04 08:57 543K
20260504T06Z_MSC_RDPS_WindDir_IsbL-0550_RLatLon0.09_PT055H.grib2 2026-05-04 08:57 555K
20260504T06Z_MSC_RDPS_WindDir_IsbL-0600_RLatLon0.09_PT055H.grib2 2026-05-04 08:57 580K
20260504T06Z_MSC_RDPS_WindDir_IsbL-0650_RLatLon0.09_PT055H.grib2 2026-05-04 08:57 620K
20260504T06Z_MSC_RDPS_WindDir_IsbL-0700_RLatLon0.09_PT055H.grib2 2026-05-04 08:57 664K
20260504T06Z_MSC_RDPS_WindDir_IsbL-0750_RLatLon0.09_PT055H.grib2 2026-05-04 08:57 710K
20260504T06Z_MSC_RDPS_WindDir_IsbL-0800_RLatLon0.09_PT055H.grib2 2026-05-04 08:57 776K
20260504T06Z_MSC_RDPS_WindDir_IsbL-0850_RLatLon0.09_PT055H.grib2 2026-05-04 08:57 852K
20260504T06Z_MSC_RDPS_WindDir_IsbL-0875_RLatLon0.09_PT055H.grib2 2026-05-04 08:57 883K
20260504T06Z_MSC_RDPS_WindDir_IsbL-0900_RLatLon0.09_PT055H.grib2 2026-05-04 08:57 903K
20260504T06Z_MSC_RDPS_WindDir_IsbL-0925_RLatLon0.09_PT055H.grib2 2026-05-04 08:57 918K
20260504T06Z_MSC_RDPS_WindDir_IsbL-0950_RLatLon0.09_PT055H.grib2 2026-05-04 08:57 919K
20260504T06Z_MSC_RDPS_WindDir_IsbL-0970_RLatLon0.09_PT055H.grib2 2026-05-04 08:57 923K
20260504T06Z_MSC_RDPS_WindDir_IsbL-0985_RLatLon0.09_PT055H.grib2 2026-05-04 08:57 933K
20260504T06Z_MSC_RDPS_WindDir_IsbL-1000_RLatLon0.09_PT055H.grib2 2026-05-04 08:57 949K
20260504T06Z_MSC_RDPS_WindDir_IsbL-1015_RLatLon0.09_PT055H.grib2 2026-05-04 08:57 968K
20260504T06Z_MSC_RDPS_WindGust-Max_AGL-10m_RLatLon0.09_PT055H.grib2 2026-05-04 08:57 1.0M
20260504T06Z_MSC_RDPS_WindGust-Min_AGL-10m_RLatLon0.09_PT055H.grib2 2026-05-04 08:57 1.0M
20260504T06Z_MSC_RDPS_WindGust_AGL-10m_RLatLon0.09_PT055H.grib2 2026-05-04 08:57 1.0M
20260504T06Z_MSC_RDPS_WindSpeed_AGL-10m_RLatLon0.09_PT055H.grib2 2026-05-04 08:57 854K
20260504T06Z_MSC_RDPS_WindSpeed_AGL-120m_RLatLon0.09_PT055H.grib2 2026-05-04 08:57 552K
20260504T06Z_MSC_RDPS_WindSpeed_AGL-40m_RLatLon0.09_PT055H.grib2 2026-05-04 08:57 554K
20260504T06Z_MSC_RDPS_WindSpeed_AGL-80m_RLatLon0.09_PT055H.grib2 2026-05-04 08:57 552K
20260504T06Z_MSC_RDPS_WindSpeed_IsbL-0001_RLatLon0.09_PT055H.grib2 2026-05-04 08:57 253K
20260504T06Z_MSC_RDPS_WindSpeed_IsbL-0005_RLatLon0.09_PT055H.grib2 2026-05-04 08:57 293K
20260504T06Z_MSC_RDPS_WindSpeed_IsbL-0010_RLatLon0.09_PT055H.grib2 2026-05-04 08:57 399K
20260504T06Z_MSC_RDPS_WindSpeed_IsbL-0020_RLatLon0.09_PT055H.grib2 2026-05-04 08:57 423K
20260504T06Z_MSC_RDPS_WindSpeed_IsbL-0030_RLatLon0.09_PT055H.grib2 2026-05-04 08:57 322K
20260504T06Z_MSC_RDPS_WindSpeed_IsbL-0050_RLatLon0.09_PT055H.grib2 2026-05-04 08:57 353K
20260504T06Z_MSC_RDPS_WindSpeed_IsbL-0100_RLatLon0.09_PT055H.grib2 2026-05-04 08:57 477K
20260504T06Z_MSC_RDPS_WindSpeed_IsbL-0150_RLatLon0.09_PT055H.grib2 2026-05-04 08:57 378K
20260504T06Z_MSC_RDPS_WindSpeed_IsbL-0175_RLatLon0.09_PT055H.grib2 2026-05-04 08:57 423K
20260504T06Z_MSC_RDPS_WindSpeed_IsbL-0200_RLatLon0.09_PT055H.grib2 2026-05-04 08:57 436K
20260504T06Z_MSC_RDPS_WindSpeed_IsbL-0225_RLatLon0.09_PT055H.grib2 2026-05-04 08:57 440K
20260504T06Z_MSC_RDPS_WindSpeed_IsbL-0250_RLatLon0.09_PT055H.grib2 2026-05-04 08:57 443K
20260504T06Z_MSC_RDPS_WindSpeed_IsbL-0275_RLatLon0.09_PT055H.grib2 2026-05-04 08:57 462K
20260504T06Z_MSC_RDPS_WindSpeed_IsbL-0300_RLatLon0.09_PT055H.grib2 2026-05-04 08:57 463K
20260504T06Z_MSC_RDPS_WindSpeed_IsbL-0350_RLatLon0.09_PT055H.grib2 2026-05-04 08:57 478K
20260504T06Z_MSC_RDPS_WindSpeed_IsbL-0400_RLatLon0.09_PT055H.grib2 2026-05-04 08:57 483K
20260504T06Z_MSC_RDPS_WindSpeed_IsbL-0450_RLatLon0.09_PT055H.grib2 2026-05-04 08:57 464K
20260504T06Z_MSC_RDPS_WindSpeed_IsbL-0500_RLatLon0.09_PT055H.grib2 2026-05-04 08:57 461K
20260504T06Z_MSC_RDPS_WindSpeed_IsbL-0550_RLatLon0.09_PT055H.grib2 2026-05-04 08:57 460K
20260504T06Z_MSC_RDPS_WindSpeed_IsbL-0600_RLatLon0.09_PT055H.grib2 2026-05-04 08:57 586K
20260504T06Z_MSC_RDPS_WindSpeed_IsbL-0650_RLatLon0.09_PT055H.grib2 2026-05-04 08:57 606K
20260504T06Z_MSC_RDPS_WindSpeed_IsbL-0700_RLatLon0.09_PT055H.grib2 2026-05-04 08:57 672K
20260504T06Z_MSC_RDPS_WindSpeed_IsbL-0750_RLatLon0.09_PT055H.grib2 2026-05-04 08:57 703K
20260504T06Z_MSC_RDPS_WindSpeed_IsbL-0800_RLatLon0.09_PT055H.grib2 2026-05-04 08:57 754K
20260504T06Z_MSC_RDPS_WindSpeed_IsbL-0850_RLatLon0.09_PT055H.grib2 2026-05-04 08:57 818K
20260504T06Z_MSC_RDPS_WindSpeed_IsbL-0875_RLatLon0.09_PT055H.grib2 2026-05-04 08:57 849K
20260504T06Z_MSC_RDPS_WindSpeed_IsbL-0900_RLatLon0.09_PT055H.grib2 2026-05-04 08:57 866K
20260504T06Z_MSC_RDPS_WindSpeed_IsbL-0925_RLatLon0.09_PT055H.grib2 2026-05-04 08:57 880K
20260504T06Z_MSC_RDPS_WindSpeed_IsbL-0950_RLatLon0.09_PT055H.grib2 2026-05-04 08:57 880K
20260504T06Z_MSC_RDPS_WindSpeed_IsbL-0970_RLatLon0.09_PT055H.grib2 2026-05-04 08:57 874K
20260504T06Z_MSC_RDPS_WindSpeed_IsbL-0985_RLatLon0.09_PT055H.grib2 2026-05-04 08:57 868K
20260504T06Z_MSC_RDPS_WindSpeed_IsbL-1000_RLatLon0.09_PT055H.grib2 2026-05-04 08:57 864K
20260504T06Z_MSC_RDPS_WindSpeed_IsbL-1015_RLatLon0.09_PT055H.grib2 2026-05-04 08:57 855K
20260504T06Z_MSC_RDPS_WindU_AGL-10m_RLatLon0.09_PT055H.grib2 2026-05-04 08:57 439K
20260504T06Z_MSC_RDPS_WindU_AGL-120m_RLatLon0.09_PT055H.grib2 2026-05-04 08:57 545K
20260504T06Z_MSC_RDPS_WindU_AGL-40m_RLatLon0.09_PT055H.grib2 2026-05-04 08:57 547K
20260504T06Z_MSC_RDPS_WindU_AGL-80m_RLatLon0.09_PT055H.grib2 2026-05-04 08:57 546K
20260504T06Z_MSC_RDPS_WindU_IsbL-0001_RLatLon0.09_PT055H.grib2 2026-05-04 08:57 244K
20260504T06Z_MSC_RDPS_WindU_IsbL-0005_RLatLon0.09_PT055H.grib2 2026-05-04 08:57 283K
20260504T06Z_MSC_RDPS_WindU_IsbL-0010_RLatLon0.09_PT055H.grib2 2026-05-04 08:57 296K
20260504T06Z_MSC_RDPS_WindU_IsbL-0020_RLatLon0.09_PT055H.grib2 2026-05-04 08:57 317K
20260504T06Z_MSC_RDPS_WindU_IsbL-0030_RLatLon0.09_PT055H.grib2 2026-05-04 08:57 352K
20260504T06Z_MSC_RDPS_WindU_IsbL-0050_RLatLon0.09_PT055H.grib2 2026-05-04 08:57 381K
20260504T06Z_MSC_RDPS_WindU_IsbL-0100_RLatLon0.09_PT055H.grib2 2026-05-04 08:57 335K
20260504T06Z_MSC_RDPS_WindU_IsbL-0150_RLatLon0.09_PT055H.grib2 2026-05-04 08:57 395K
20260504T06Z_MSC_RDPS_WindU_IsbL-0175_RLatLon0.09_PT055H.grib2 2026-05-04 08:57 416K
20260504T06Z_MSC_RDPS_WindU_IsbL-0200_RLatLon0.09_PT055H.grib2 2026-05-04 08:57 332K
20260504T06Z_MSC_RDPS_WindU_IsbL-0225_RLatLon0.09_PT055H.grib2 2026-05-04 08:57 335K
20260504T06Z_MSC_RDPS_WindU_IsbL-0250_RLatLon0.09_PT055H.grib2 2026-05-04 08:57 334K
20260504T06Z_MSC_RDPS_WindU_IsbL-0275_RLatLon0.09_PT055H.grib2 2026-05-04 08:57 350K
20260504T06Z_MSC_RDPS_WindU_IsbL-0300_RLatLon0.09_PT055H.grib2 2026-05-04 08:57 349K
20260504T06Z_MSC_RDPS_WindU_IsbL-0350_RLatLon0.09_PT055H.grib2 2026-05-04 08:57 361K
20260504T06Z_MSC_RDPS_WindU_IsbL-0400_RLatLon0.09_PT055H.grib2 2026-05-04 08:57 469K
20260504T06Z_MSC_RDPS_WindU_IsbL-0450_RLatLon0.09_PT055H.grib2 2026-05-04 08:57 468K
20260504T06Z_MSC_RDPS_WindU_IsbL-0500_RLatLon0.09_PT055H.grib2 2026-05-04 08:57 466K
20260504T06Z_MSC_RDPS_WindU_IsbL-0550_RLatLon0.09_PT055H.grib2 2026-05-04 08:57 465K
20260504T06Z_MSC_RDPS_WindU_IsbL-0600_RLatLon0.09_PT055H.grib2 2026-05-04 08:57 472K
20260504T06Z_MSC_RDPS_WindU_IsbL-0650_RLatLon0.09_PT055H.grib2 2026-05-04 08:57 490K
20260504T06Z_MSC_RDPS_WindU_IsbL-0700_RLatLon0.09_PT055H.grib2 2026-05-04 08:57 511K
20260504T06Z_MSC_RDPS_WindU_IsbL-0750_RLatLon0.09_PT055H.grib2 2026-05-04 08:57 523K
20260504T06Z_MSC_RDPS_WindU_IsbL-0800_RLatLon0.09_PT055H.grib2 2026-05-04 08:57 569K
20260504T06Z_MSC_RDPS_WindU_IsbL-0850_RLatLon0.09_PT055H.grib2 2026-05-04 08:57 631K
20260504T06Z_MSC_RDPS_WindU_IsbL-0875_RLatLon0.09_PT055H.grib2 2026-05-04 08:57 653K
20260504T06Z_MSC_RDPS_WindU_IsbL-0900_RLatLon0.09_PT055H.grib2 2026-05-04 08:57 665K
20260504T06Z_MSC_RDPS_WindU_IsbL-0925_RLatLon0.09_PT055H.grib2 2026-05-04 08:57 675K
20260504T06Z_MSC_RDPS_WindU_IsbL-0950_RLatLon0.09_PT055H.grib2 2026-05-04 08:57 670K
20260504T06Z_MSC_RDPS_WindU_IsbL-0970_RLatLon0.09_PT055H.grib2 2026-05-04 08:57 665K
20260504T06Z_MSC_RDPS_WindU_IsbL-0985_RLatLon0.09_PT055H.grib2 2026-05-04 08:57 800K
20260504T06Z_MSC_RDPS_WindU_IsbL-1000_RLatLon0.09_PT055H.grib2 2026-05-04 08:57 797K
20260504T06Z_MSC_RDPS_WindU_IsbL-1015_RLatLon0.09_PT055H.grib2 2026-05-04 08:57 792K
20260504T06Z_MSC_RDPS_WindV_AGL-10m_RLatLon0.09_PT055H.grib2 2026-05-04 08:57 439K
20260504T06Z_MSC_RDPS_WindV_AGL-120m_RLatLon0.09_PT055H.grib2 2026-05-04 08:57 544K
20260504T06Z_MSC_RDPS_WindV_AGL-40m_RLatLon0.09_PT055H.grib2 2026-05-04 08:57 547K
20260504T06Z_MSC_RDPS_WindV_AGL-80m_RLatLon0.09_PT055H.grib2 2026-05-04 08:57 545K
20260504T06Z_MSC_RDPS_WindV_IsbL-0001_RLatLon0.09_PT055H.grib2 2026-05-04 08:57 247K
20260504T06Z_MSC_RDPS_WindV_IsbL-0005_RLatLon0.09_PT055H.grib2 2026-05-04 08:57 286K
20260504T06Z_MSC_RDPS_WindV_IsbL-0010_RLatLon0.09_PT055H.grib2 2026-05-04 08:57 299K
20260504T06Z_MSC_RDPS_WindV_IsbL-0020_RLatLon0.09_PT055H.grib2 2026-05-04 08:57 319K
20260504T06Z_MSC_RDPS_WindV_IsbL-0030_RLatLon0.09_PT055H.grib2 2026-05-04 08:57 317K
20260504T06Z_MSC_RDPS_WindV_IsbL-0050_RLatLon0.09_PT055H.grib2 2026-05-04 08:57 347K
20260504T06Z_MSC_RDPS_WindV_IsbL-0100_RLatLon0.09_PT055H.grib2 2026-05-04 08:57 426K
20260504T06Z_MSC_RDPS_WindV_IsbL-0150_RLatLon0.09_PT055H.grib2 2026-05-04 08:57 392K
20260504T06Z_MSC_RDPS_WindV_IsbL-0175_RLatLon0.09_PT055H.grib2 2026-05-04 08:57 320K
20260504T06Z_MSC_RDPS_WindV_IsbL-0200_RLatLon0.09_PT055H.grib2 2026-05-04 08:57 331K
20260504T06Z_MSC_RDPS_WindV_IsbL-0225_RLatLon0.09_PT055H.grib2 2026-05-04 08:57 332K
20260504T06Z_MSC_RDPS_WindV_IsbL-0250_RLatLon0.09_PT055H.grib2 2026-05-04 08:57 334K
20260504T06Z_MSC_RDPS_WindV_IsbL-0275_RLatLon0.09_PT055H.grib2 2026-05-04 08:57 375K
20260504T06Z_MSC_RDPS_WindV_IsbL-0300_RLatLon0.09_PT055H.grib2 2026-05-04 08:57 374K
20260504T06Z_MSC_RDPS_WindV_IsbL-0350_RLatLon0.09_PT055H.grib2 2026-05-04 08:57 386K
20260504T06Z_MSC_RDPS_WindV_IsbL-0400_RLatLon0.09_PT055H.grib2 2026-05-04 08:57 365K
20260504T06Z_MSC_RDPS_WindV_IsbL-0450_RLatLon0.09_PT055H.grib2 2026-05-04 08:57 364K
20260504T06Z_MSC_RDPS_WindV_IsbL-0500_RLatLon0.09_PT055H.grib2 2026-05-04 08:57 362K
20260504T06Z_MSC_RDPS_WindV_IsbL-0550_RLatLon0.09_PT055H.grib2 2026-05-04 08:57 464K
20260504T06Z_MSC_RDPS_WindV_IsbL-0600_RLatLon0.09_PT055H.grib2 2026-05-04 08:57 471K
20260504T06Z_MSC_RDPS_WindV_IsbL-0650_RLatLon0.09_PT055H.grib2 2026-05-04 08:57 488K
20260504T06Z_MSC_RDPS_WindV_IsbL-0700_RLatLon0.09_PT055H.grib2 2026-05-04 08:57 507K
20260504T06Z_MSC_RDPS_WindV_IsbL-0750_RLatLon0.09_PT055H.grib2 2026-05-04 08:57 519K
20260504T06Z_MSC_RDPS_WindV_IsbL-0800_RLatLon0.09_PT055H.grib2 2026-05-04 08:57 564K
20260504T06Z_MSC_RDPS_WindV_IsbL-0850_RLatLon0.09_PT055H.grib2 2026-05-04 08:57 626K
20260504T06Z_MSC_RDPS_WindV_IsbL-0875_RLatLon0.09_PT055H.grib2 2026-05-04 08:57 648K
20260504T06Z_MSC_RDPS_WindV_IsbL-0900_RLatLon0.09_PT055H.grib2 2026-05-04 08:57 661K
20260504T06Z_MSC_RDPS_WindV_IsbL-0925_RLatLon0.09_PT055H.grib2 2026-05-04 08:57 672K
20260504T06Z_MSC_RDPS_WindV_IsbL-0950_RLatLon0.09_PT055H.grib2 2026-05-04 08:57 670K
20260504T06Z_MSC_RDPS_WindV_IsbL-0970_RLatLon0.09_PT055H.grib2 2026-05-04 08:57 666K
20260504T06Z_MSC_RDPS_WindV_IsbL-0985_RLatLon0.09_PT055H.grib2 2026-05-04 08:57 662K
20260504T06Z_MSC_RDPS_WindV_IsbL-1000_RLatLon0.09_PT055H.grib2 2026-05-04 08:57 799K
20260504T06Z_MSC_RDPS_WindV_IsbL-1015_RLatLon0.09_PT055H.grib2 2026-05-04 08:57 838K